Powrót do katalogu

CZ-11 DEB

AktywnyVLEO
NORAD 66377·DEBRIS·🇨🇳 China

Wystrzelony Nov 8, 2025 z Yellow Sea Launch Area

Loading…

Następne Przeloty (najbliższe 24 godziny)

TLE

Starzejące sięSource: Space-Track

Epoka: Sep 13, 2026, 11:58 UTC

1 66377U 25255B   26256.49867866  .00262224  00000-0  90318-3 0  9995
2 66377  52.9814 276.7213 0003549  42.0713 318.0583 15.88358635 48110

Śledź CZ-11 DEB w czasie rzeczywistym z AllMySat

Download on the App Store